Location: Barrio Las Umbrías
(40.4173°N, 4.8685°W)
Time: 11:52:21
(UTC+00:00)

Cosmos 1538 Rocket - Pass Details

Date: 17 August 2022
Orbit: 751 x 792 km, 74.0° (Epoch: 27 September)

Event Time Altitude Azimuth Distance (km) Brightness Sun altitude
Rises 20:09:37 0° 182° (S) 3,183 6.9 -10.5°
Reaches altitude 10° 20:12:01 10° 177° (S) 2,264 6.1 -10.9°
Maximum altitude 20:16:56 49° 103° (ESE) 971 4.1 -11.8°
Drops below altitude 10° 20:21:55 10° 30° (NNE) 2,292 6.5 -12.6°
Sets 20:24:21 0° 25° (NNE) 3,226 7.3 -13.0°
